Showing default

PANDORA, 67395

Orbit data source: Space-Track

PANDORA, 67395 is a payload satellite owned by GSFC (US) in SSO that was launched on Sun, 11 Jan 2026 UTC via an FALCON 9 launch vehicle from the Air Force Western Test Range (AFWTR). Payload-class satellites include a variety of spacecraft equipped with specific instruments for various scientific and technological missions. These include communications satellites like Starlink; space stations such as the ISS; scientific satellites like the Hubble; Earth observation satellites from companies like Planet Labs, Umbra, and HawkEye 360; GPS; miniature CubeSats for education and research; and military/defense satellites.

Loading next visibility...
Identifier
67395, 2026-004AJ
Orbit
SSO
Country
Flag of USUS
Related business
Manufacturer
BLCAN/LLNL
Mission
Operational Civil Astronomy
Bus & Motor
SATURN, Unknown motor
Mass
300 kg wet, 300 kg dry
Launch date (UTC)
2026-01-11 (4 months ago)
Launch vehicle
FALCON 9
Launch site
Air Force Western Test Range (AFWTR)
Object type
Payload
Rocket body
Debris
Shape & HBR
Box + Cyl + 1 Pan, 2.0 m
Radar Cross Section
2.532 m²

Expand to show TLE details & history
Last TLE update: 6 hours ago

TLE from 6 hours ago
0 PANDORA
1 67395U 26004AJ  26146.58518899  .00000815  00000-0  94632-4 0  9996
2 67395  97.8036 145.5803 0004920 183.0789 177.0398 14.88027288 20063
Epoch: 2026-05-26T14:02Z
TLE epoch observation values (Epoch: 2026-05-26T14:02:40.328Z)
Latitude
-0.00005°
Longitude
50.75576°
Altitude
610.567 km
Speed
7.552 km/s
True Right ascension
09h 42m 19s
True Declination
0° 00' 00"
Sunlit
Object was in daylight at epoch
Visualization orbit readout
Latitude
Unknown
Longitude
Unknown
Altitude
Unknown
Speed
Unknown
Apparent Right ascension
Unknown
Apparent Declination
Unknown
Sunlit
N/A
Visualization observer readout
Local Sidereal Time
05:29:38
Azimuth
Unknown
Elevation
Unknown
Doppler factor
Unknown
Orbital elements
Apogee altitude
604.559 km
Perigee altitude
597.692 km
Semi-major axis
6,979.263 km
Eccentricity
0.00049
Inclination
97.8036°
RAAN
145.5803°
Arg. of periapsis
183.0789°
True anomaly
177.04271°
Mean anomaly
177.0398°
Eccentric anomaly
177.04126°
Mean motion
3.72245 °/min
Orbital period
96.71 mins
BSTAR
0.000094632
Loading maneuver chart data...
Computing Atmospheric mass density...
Loading historical data...
Loading historical data...
Loading historical data...
Loading historical data...
Loading historical data...
Loading historical data...
Loading historical data...

Documentation

Showing up to 5 results
|